Wind_Speed
99 99 99 98 97 97 97 96 95 95 94 93 92 92 91 90 90 89 89 88 87 87 86 86 86 85 85 85 86 86 86 87 87 87 87 87 87 87 86 86 86 86 86 86 86 86 86 85 85 85 85 85 85 85 85 85 85 85 86 86 86 86 87 87 87 87 87 88 88 88 89 89 90 90 91 91 91 92 92 92 92 92 92 91 91 91
98 99 98 98 98 98 98 97 97 96 95 95 94 93 93 92 91 91 90 90 89 88 88 87 87 86 86 86 86 86 86 87 87 87 87 87 87 87 87 87 87 87 87 86 86 86 86 86 86 85 85 85 85 85 85 85 85 85 86 86 86 86 87 87 87 87 87 87 87 88 88 89 89 90 90 91 91 92 92 92 92 92 92 92 92 92
97 97 98 98 98 98 98 98 97 97 97 96 96 95 94 94 93 92 92 91 90 90 89 88 88 87 87 87 86 86 87 87 87 87 88 88 88 88 88 87 87 87 87 87 87 87 87 87 86 86 86 86 85 85 85 85 85 85 85 86 86 86 86 87 87 87 87 87 87 87 88 88 89 89 90 90 91 91 92 92 93 93 93 93 93 93
96 96 97 97 97 97 97 98 98 98 98 97 97 96 96 95 95 94 93 93 92 91 91 90 89 89 88 88 87 87 87 87 87 88 88 88 88 88 88 88 88 88 88 88 88 87 87 87 87 87 86 86 86 86 85 85 85 85 85 85 86 86 86 87 87 87 87 87 87 87 87 88 88 88 89 90 90 91 92 92 93 93 93 93 93 93
95 96 96 96 96 97 97 97 97 97 98 98 98 98 97 97 96 96 95 94 94 93 93 92 91 90 90 89 88 88 88 88 88 88 88 88 88 88 88 88 89 88 88 88 88 88 88 88 88 88 87 87 87 86 86 86 86 86 85 86 86 86 86 86 87 87 87 87 87 87 87 87 87 88 88 89 90 90 91 92 92 93 93 94 94 94
95 95 95 95 96 96 96 96 96 97 97 98 98 98 98 98 98 97 96 96 95 95 94 94 93 92 91 91 90 89 89 88 88 88 88 89 89 89 89 89 89 89 89 89 89 89 89 89 89 88 88 88 88 87 87 87 86 86 86 86 86 86 86 86 87 87 87 87 87 87 87 87 87 87 88 88 89 89 90 91 92 92 93 94 94 94
96 95 95 95 96 96 96 96 96 96 97 98 98 99 99 99 99 98 98 97 97 96 96 95 95 94 93 92 92 91 90 90 89 89 89 89 89 89 89 89 90 90 90 90 89 89 89 89 89 89 89 89 89 88 88 88 87 87 86 86 86 86 86 86 86 87 87 87 87 87 87 87 87 87 87 88 88 89 89 90 91 92 92 93 94 94
96 96 96 96 96 96 96 96 96 96 96 97 98 98 99 99 100 100 99 99 98 98 97 97 96 96 95 94 93 93 92 91 91 90 90 90 90 90 90 90 90 90 90 90 90 90 90 90 90 90 90 90 90 89 89 89 88 88 87 87 87 86 86 86 86 86 87 87 87 87 88 88 88 88 87 87 87 88 88 89 89 90 91 92 93 94
97 97 96 96 96 96 96 96 96 96 96 96 97 97 98 99 100 100 100 100 100 99 99 98 98 97 97 96 95 94 94 93 93 92 91 91 91 91 91 91 91 91 91 91 91 91 91 91 91 91 91 91 91 90 90 90 89 89 88 88 88 87 87 87 87 87 87 87 87 87 88 88 88 88 88 88 88 88 88 88 88 89 90 91 92 93
98 97 97 97 97 97 97 97 96 96 96 96 96 97 98 98 99 100 101 101 101 101 100 100 99 99 98 98 97 96 96 95 94 94 93 93 92 92 92 91 91 91 91 91 91 91 91 92 92 92 92 92 91 91 91 91 91 90 90 89 89 88 88 87 87 87 87 87 87 87 88 88 88 88 88 88 88 88 88 88 88 88 89 89 90 91
98 98 97 97 97 97 97 97 97 96 96 96 96 96 97 98 99 100 100 101 102 102 102 101 101 100 100 99 99 98 97 97 96 95 95 94 94 93 93 93 93 92 92 92 92 92 92 92 92 92 92 92 92 92 92 92 92 91 91 91 90 90 89 89 88 88 88 88 88 88 88 88 88 88 88 88 88 88 88 88 88 88 88 88 89 90
99 99 98 98 97 97 97 97 97 97 96 96 96 96 97 98 98 99 100 101 102 102 102 102 102 102 101 101 100 100 99 98 98 97 97 96 95 95 95 94 94 94 93 93 93 93 93 93 93 93 93 93 93 93 93 93 93 93 92 92 91 91 91 90 90 89 89 88 88 88 88 88 88 89 89 89 89 89 88 88 88 88 88 88 88 88
100 100 99 98 98 98 97 97 97 97 96 96 96 96 97 98 98 98 99 100 101 102 102 103 103 103 103 102 102 101 101 100 100 99 99 98 97 97 96 96 95 95 95 95 94 94 94 94 94 94 94 94 94 94 94 94 94 94 93 93 93 92 92 91 91 91 90 90 89 89 89 89 89 89 89 89 89 89 89 89 89 89 88 88 88 88
102 101 100 99 99 98 98 97 97 97 97 96 97 97 98 98 98 98 99 100 101 102 102 103 103 104 104 103 103 103 102 102 102 101 100 100 99 99 98 97 97 97 96 96 96 96 96 95 95 95 95 95 95 95 95 95 95 95 95 94 94 94 93 93 92 92 92 91 91 90 90 90 90 90 90 90 90 89 89 89 89 89 89 89 89 89
102 102 101 100 100 99 98 98 97 97 97 97 97 97 98 98 98 98 99 99 100 101 101 102 103 104 104 104 104 104 104 104 103 103 102 102 101 101 100 99 99 99 98 98 98 98 97 97 97 97 97 96 96 96 96 96 96 96 96 95 95 95 95 94 94 93 93 93 92 92 91 91 91 90 90 90 90 90 90 90 90 90 90 90 90 89
103 103 102 101 101 100 99 98 98 97 98 98 98 98 98 98 98 99 99 99 100 100 100 101 102 103 104 105 105 105 105 105 105 104 104 104 103 103 102 101 101 101 100 100 100 99 99 99 98 98 98 98 98 97 97 97 97 97 97 97 96 96 96 95 95 95 94 94 94 93 93 92 92 92 91 91 91 91 91 91 91 91 91 91 90 90
104 104 103 102 102 101 100 99 99 98 99 99 99 99 99 99 99 99 99 99 99 99 100 100 101 102 104 105 105 106 106 106 106 106 106 106 106 105 104 103 103 103 102 102 102 101 101 100 100 100 100 99 99 99 98 98 98 98 98 98 97 97 97 97 96 96 96 95 95 95 94 94 94 93 93 92 92 92 92 91 91 91 91 91 91 91
105 105 104 103 103 102 101 100 99 100 100 99 100 100 99 99 99 99 99 99 99 99 100 100 101 102 103 104 105 106 106 106 107 107 107 107 107 107 106 105 105 105 104 104 104 103 103 102 102 102 101 101 100 100 100 100 99 99 99 99 99 98 98 98 98 97 97 97 96 96 96 95 95 95 94 94 94 93 93 93 92 92 92 92 92 92
107 106 105 104 104 103 102 101 101 100 100 100 100 100 100 100 99 99 99 99 99 99 100 100 101 102 103 104 105 106 106 107 107 108 108 109 109 109 108 107 107 107 106 106 106 105 105 104 104 103 103 103 102 102 101 101 101 101 100 100 100 100 99 99 99 99 98 98 98 97 97 97 96 96 96 95 95 95 94 94 94 94 93 93 93 93
107 107 106 105 104 104 103 102 101 101 101 101 101 101 100 100 100 100 100 100 100 100 100 100 101 102 102 104 105 106 106 107 107 108 109 110 110 110 110 109 109 109 108 108 108 107 107 106 106 105 105 104 104 103 103 103 102 102 102 101 101 101 101 100 100 100 100 99 99 99 99 98 98 98 97 97 97 96 96 96 95 95 95 94 94 94
109 108 107 106 105 105 104 103 102 102 101 101 101 101 101 101 101 101 101 100 100 100 100 101 101 102 103 103 104 105 106 106 107 108 110 111 111 112 111 111 110 110 110 110 110 109 109 108 108 107 107 106 106 105 105 105 104 104 103 103 103 102 102 102 101 101 101 101 101 100 100 100 99 99 99 98 98 98 97 97 97 96 96 96 96 95
109 109 108 107 106 106 105 104 103 102 102 102 102 102 102 102 102 102 101 101 101 101 101 101 102 102 103 103 104 105 105 106 107 108 110 111 112 113 113 112 112 112 112 112 112 111 111 110 110 109 109 108 108 107 107 106 106 105 105 105 104 104 103 103 103 103 102 102 102 102 101 101 101 101 100 100 100 99 99 98 98 98 98 97 97 97
110 110 109 108 107 107 106 105 104 104 103 103 103 103 103 103 102 102 102 102 102 102 102 102 103 103 103 103 104 105 105 106 107 108 109 110 112 113 114 113 113 113 114 114 114 113 113 112 112 111 111 110 110 110 109 109 108 107 107 106 106 106 105 105 105 104 104 104 103 103 103 103 102 102 102 101 101 101 100 100 100 99 99 99 99 98
111 110 110 109 109 108 107 107 106 105 104 104 104 104 103 103 103 103 103 103 103 103 103 103 103 103 104 104 104 105 105 106 107 107 108 110 112 114 114 114 114 115 116 116 116 115 115 114 114 114 113 113 112 112 111 111 110 110 109 108 108 108 107 107 106 106 106 105 105 105 104 104 104 104 103 103 103 102 102 102 101 101 101 100 100 100
112 111 111 110 110 109 109 108 108 107 106 106 105 105 105 104 104 104 104 104 104 104 104 104 104 104 105 105 105 105 106 106 107 107 108 110 112 113 114 115 115 116 117 118 118 117 117 116 116 116 115 115 114 114 113 113 112 112 111 111 110 109 109 108 108 108 107 107 107 106 106 106 105 105 105 105 104 104 104 103 103 103 102 102 102 101
112 112 112 111 111 111 110 110 109 109 108 107 107 107 106 106 106 106 106 106 105 105 105 105 105 105 106 106 106 106 107 107 107 107 108 110 111 113 114 115 115 116 117 118 119 119 119 118 118 118 117 117 117 116 116 115 115 114 113 113 112 112 111 110 110 110 109 109 108 108 108 107 107 107 106 106 106 106 105 105 105 104 104 104 103 103
112 112 112 112 112 112 111 111 111 110 110 109 109 108 108 108 108 108 108 108 107 107 106 107 107 107 107 107 107 107 108 108 108 108 109 110 111 113 114 115 115 116 117 119 120 120 120 120 120 120 119 119 119 118 118 117 117 116 115 115 114 114 113 113 112 112 111 111 110 110 109 109 109 108 108 108 107 107 107 107 106 106 106 105 105 105
111 112 112 112 112 112 112 112 112 111 111 111 110 110 110 109 110 110 110 110 109 108 108 108 109 109 108 108 108 109 109 109 109 109 109 110 111 112 114 115 116 116 117 119 120 121 121 122 122 122 121 121 121 120 120 120 119 118 118 117 117 116 115 115 114 114 113 113 112 112 111 111 110 110 110 109 109 109 109 108 108 108 108 107 107 107
110 110 111 111 111 112 112 112 112 112 111 111 111 111 111 111 111 112 112 112 111 111 111 111 110 110 110 110 110 110 110 110 110 110 110 110 111 113 115 115 116 116 117 118 120 121 122 123 123 123 123 123 123 122 122 122 121 121 120 119 119 118 118 117 117 116 115 115 114 114 113 113 112 112 111 111 111 110 110 110 110 110 109 109 109 109
108 109 109 110 110 110 111 111 111 111 111 112 112 112 112 112 112 113 113 113 112 112 113 113 112 112 112 112 111 111 111 111 111 111 110 110 112 114 115 115 116 116 117 118 119 120 122 123 124 124 124 124 124 124 124 124 123 123 122 122 121 121 120 119 119 118 118 117 116 116 115 115 114 114 114 113 113 112 112 112 112 111 111 111 111 110
107 107 107 108 108 109 109 110 110 110 111 111 112 112 112 113 113 113 114 114 114 114 114 114 114 114 113 113 113 113 113 113 113 112 111 111 113 114 115 116 116 117 117 118 118 120 121 123 124 124 125 125 125 126 126 126 125 125 124 124 123 123 122 122 121 121 120 119 119 118 118 117 117 116 116 115 115 115 114 114 114 113 113 113 112 112
106 106 106 106 107 107 108 108 109 109 110 110 111 112 112 113 113 114 114 114 114 115 115 115 115 115 114 114 114 114 115 115 114 113 112 113 114 115 116 116 117 118 118 118 118 119 121 122 124 124 125 125 126 127 127 127 127 127 126 126 125 125 125 124 123 123 122 122 121 121 120 119 119 118 118 118 117 117 117 116 116 115 115 115 115 114
105 105 105 105 105 106 106 107 107 108 109 109 110 111 112 112 113 113 114 115 115 115 115 116 116 116 116 115 115 116 116 116 115 115 114 114 115 116 117 117 117 118 119 119 119 119 120 121 123 124 125 126 126 127 128 128 128 128 128 128 127 127 127 126 126 125 125 124 123 123 122 122 121 121 120 120 120 119 119 119 118 118 117 117 117 116
105 104 105 105 105 105 105 106 106 107 108 108 109 110 111 112 112 113 114 114 115 115 115 116 116 116 116 116 116 116 117 117 116 116 115 115 116 117 117 117 118 118 119 119 119 120 120 121 122 123 124 125 126 127 128 128 128 129 129 129 129 129 129 128 128 127 127 126 126 125 125 124 124 123 123 122 122 122 121 121 121 120 120 119 119 119
104 104 104 104 104 104 104 105 105 106 107 107 108 109 110 111 112 113 113 114 115 115 115 116 116 116 116 116 117 117 117 117 117 116 116 116 117 117 118 118 119 119 119 120 120 120 120 121 122 122 124 125 126 127 128 128 129 129 129 130 130 130 130 130 130 129 129 129 128 128 127 127 126 126 125 125 124 124 124 123 123 123 122 122 121 121
104 104 103 103 103 103 104 104 105 105 106 107 108 109 109 110 111 112 113 113 114 114 115 115 116 116 116 116 117 117 118 118 118 117 117 117 117 118 118 119 119 120 120 120 121 121 121 121 122 122 123 124 125 127 127 128 128 129 129 130 130 131 131 131 131 131 131 131 130 130 129 129 128 128 128 127 127 127 126 126 125 125 125 124 124 124
103 103 103 103 103 103 103 104 104 105 105 106 107 108 109 110 110 111 112 113 113 114 114 115 115 115 116 116 117 117 118 118 118 118 118 118 118 118 118 119 120 120 120 120 121 121 121 122 122 123 123 124 125 126 127 127 128 128 129 129 130 130 131 131 132 132 132 132 132 132 131 131 131 130 130 130 129 129 129 128 128 127 127 127 127 126
103 103 103 102 102 102 103 103 104 104 105 106 107 108 108 109 110 111 111 112 112 113 113 114 114 115 115 116 116 117 118 118 118 118 118 118 118 118 118 119 120 120 120 121 121 121 122 122 122 123 123 124 125 126 126 127 127 128 129 129 129 130 130 131 131 132 132 132 132 133 133 132 132 132 132 132 131 131 131 130 130 130 129 129 129 129
103 102 102 102 102 102 102 103 103 104 105 105 106 107 108 109 109 110 111 111 112 112 113 113 114 114 114 115 115 116 117 117 118 118 118 118 118 118 118 119 119 120 120 121 121 121 121 122 122 123 124 124 125 125 126 126 127 127 128 128 129 129 130 130 131 131 131 132 132 133 133 133 133 133 133 133 133 133 133 133 132 132 132 131 131 131
102 102 102 102 102 102 102 102 103 104 104 105 106 107 107 108 109 109 110 110 111 111 112 112 113 113 114 114 115 115 116 116 117 117 117 118 118 118 118 118 119 119 120 120 120 121 121 122 122 123 123 124 124 124 125 125 126 127 127 128 128 129 129 129 130 130 130 131 131 132 133 133 133 133 134 134 134 134 134 134 134 134 133 133 133 133
102 102 102 101 101 101 102 102 103 103 104 104 105 106 107 108 108 109 110 110 110 111 111 111 112 112 113 113 114 114 115 115 116 116 116 117 117 117 117 118 118 118 119 119 119 120 120 121 121 122 122 123 123 124 124 125 125 126 126 127 128 128 128 129 129 129 129 130 130 131 131 132 132 133 133 133 134 134 134 134 135 135 135 134 134 134
101 101 101 101 101 101 101 101 102 102 103 104 105 106 107 107 108 108 109 109 110 110 110 110 110 111 111 112 113 113 114 114 114 115 115 116 116 116 117 117 117 117 118 118 118 119 119 120 120 121 121 122 122 122 123 124 124 125 125 126 127 127 128 128 128 128 128 129 129 129 130 130 131 131 132 132 133 133 133 134 134 135 135 135 135 135
100 100 100 100 100 100 100 101 101 102 102 103 104 105 106 107 107 108 108 109 109 109 109 109 109 110 110 111 111 112 112 113 113 113 114 114 115 115 115 116 116 116 116 117 117 118 118 119 119 119 120 120 120 121 121 122 123 124 124 125 126 126 127 128 128 128 128 128 128 128 128 129 129 130 130 131 131 132 132 132 133 133 134 134 134 134
98 98 98 98 98 99 99 99 100 101 101 102 103 104 105 106 107 107 108 108 109 109 109 109 108 108 109 109 110 110 111 111 111 112 112 112 113 113 113 114 114 114 115 115 115 116 116 117 117 118 118 118 119 119 120 121 121 122 123 124 124 125 126 127 127 127 127 127 127 127 127 128 128 128 129 129 130 130 130 131 131 132 132 132 132 132
96 96 96 96 97 97 97 98 99 100 100 101 102 103 104 105 106 106 107 108 108 108 108 108 108 108 108 108 109 109 109 109 110 110 110 111 111 111 111 112 112 112 112 113 113 114 114 114 115 116 116 116 117 117 118 119 120 121 122 122 123 123 124 125 125 126 126 126 126 126 126 126 127 127 128 128 129 129 129 130 130 130 130 130 130 130
94 94 95 95 95 95 96 97 98 98 99 100 101 103 104 104 105 106 106 107 107 108 108 107 107 107 107 108 108 108 108 108 108 109 109 109 109 109 109 109 110 110 110 111 111 111 112 112 113 113 114 114 114 115 116 117 118 119 120 120 121 122 122 123 124 125 125 125 126 125 125 125 125 126 127 127 128 128 128 128 129 129 128 128 128 128
92 93 93 93 94 94 95 96 96 97 98 99 101 102 103 104 104 105 106 106 107 107 107 107 107 107 107 107 107 107 107 107 107 107 108 108 108 108 108 108 108 108 108 108 109 109 110 110 111 111 111 112 112 113 114 115 116 116 117 118 119 120 120 121 122 123 124 124 124 125 124 124 125 125 126 126 127 127 127 127 127 127 127 127 126 126
90 91 91 92 92 93 94 95 95 96 97 99 100 101 102 103 103 104 105 106 106 106 106 107 107 107 107 107 107 107 107 107 107 107 107 107 107 107 106 106 106 107 107 107 107 107 108 108 109 109 109 110 111 112 113 113 114 114 115 116 117 118 119 120 121 121 122 122 123 123 123 123 124 124 125 125 125 126 126 126 126 126 125 125 124 124
89 89 90 90 91 92 93 94 94 95 97 98 99 100 101 102 103 103 104 105 105 105 106 106 106 106 106 107 106 106 106 106 106 106 106 106 106 106 106 106 105 105 105 106 106 106 106 107 107 107 108 108 109 110 111 111 112 113 113 114 115 116 117 118 119 120 120 121 121 121 122 122 122 123 123 124 124 124 124 124 124 124 123 123 122 122
87 88 88 89 90 90 91 92 93 94 95 97 98 99 100 101 101 102 103 103 104 104 104 105 105 105 105 105 105 105 105 105 106 106 106 106 105 105 105 105 105 104 104 104 105 105 105 105 106 106 106 107 107 108 109 110 110 111 111 112 113 114 115 116 117 117 118 119 119 119 120 120 121 121 121 122 122 123 123 123 122 122 122 121 120 119
86 86 87 87 88 89 90 91 92 93 94 95 96 97 98 99 100 100 101 101 102 102 102 103 103 103 104 104 104 104 104 104 104 105 105 105 104 104 104 104 104 103 103 103 103 103 103 103 104 104 105 105 106 106 107 107 108 109 109 110 111 112 112 113 114 115 116 116 117 117 117 118 118 119 119 120 120 120 121 121 121 120 119 118 118 117
Wind_Direction
261 260 260 259 259 259 259 258 258 258 258 258 258 258 258 258 258 258 258 257 257 257 257 256 256 256 256 257 257 257 256 256 256 256 255 255 255 255 255 255 255 255 256 256 256 256 256 257 257 257 257 257 257 257 257 257 257 257 257 256 256 256 256 256 256 256 256 256 256 257 257 257 257 257 257 257 257 257 257 257 257 257 257 257 257 257
261 260 260 260 259 259 259 258 258 258 258 258 258 258 258 258 258 258 257 257 257 257 257 256 256 256 256 256 256 256 256 256 256 256 256 256 255 255 256 256 256 256 256 256 256 256 256 256 256 257 257 257 257 257 257 257 257 257 257 257 256 256 256 256 256 256 256 256 256 257 257 257 257 257 257 257 257 257 257 257 257 257 257 257 258 258
261 261 260 260 259 259 259 258 258 258 257 257 257 257 257 257 257 257 257 257 257 257 257 256 256 256 256 256 256 256 256 256 256 256 256 256 256 256 256 256 256 256 256 256 256 256 256 256 256 256 257 257 257 257 257 257 257 257 257 257 257 257 257 256 256 256 256 256 256 257 257 257 257 257 257 257 257 258 258 257 257 258 258 258 258 258
261 261 261 260 259 259 259 258 258 257 257 257 257 257 257 257 257 257 257 257 257 257 257 257 256 256 256 256 255 255 255 255 255 256 256 256 256 256 256 256 256 256 256 256 256 256 256 256 256 256 256 257 257 257 257 257 257 257 257 257 257 257 257 257 257 256 256 256 256 257 257 257 257 257 257 258 258 258 258 258 258 258 258 258 258 258
261 261 261 260 260 259 259 258 258 258 257 257 256 256 256 256 256 256 256 257 257 257 257 257 257 256 256 256 255 255 255 255 255 255 255 255 255 255 256 256 256 256 256 256 256 256 256 256 256 256 256 256 257 257 257 257 257 257 257 257 257 257 257 257 257 257 257 257 257 257 257 257 257 257 257 258 258 258 258 258 258 258 258 258 258 258
261 261 261 261 260 260 259 258 258 258 257 257 256 256 256 256 256 256 256 256 256 256 257 257 257 256 256 256 256 255 255 255 255 255 255 255 255 255 255 255 256 256 256 256 256 256 256 256 256 256 256 256 256 257 257 257 257 257 257 257 257 257 257 257 257 257 257 257 257 257 257 257 257 257 257 258 258 258 258 258 258 258 258 258 258 258
261 261 261 261 261 260 259 259 258 258 257 257 256 256 256 255 255 255 255 255 256 256 256 256 257 256 256 256 256 256 255 255 255 255 255 255 255 255 255 255 255 255 256 256 256 256 256 256 256 257 257 257 257 257 257 257 257 257 257 257 257 257 257 257 257 257 257 257 257 257 257 257 257 257 257 257 258 258 258 258 258 258 258 258 258 258
261 261 261 261 260 260 260 259 259 258 258 257 257 256 256 255 255 255 255 255 255 255 255 256 256 256 256 256 256 256 256 255 255 255 255 254 254 254 254 254 255 255 255 255 256 256 256 256 256 257 257 257 257 257 257 257 257 257 257 257 257 257 257 257 257 257 257 257 257 257 257 257 257 257 257 257 258 258 258 258 258 258 258 258 258 258
261 260 260 260 260 260 260 259 259 258 258 258 257 257 256 256 255 255 254 254 254 254 255 255 255 256 256 256 256 256 256 256 255 255 255 255 254 254 254 254 254 254 255 255 255 256 256 256 256 257 257 257 257 257 257 257 257 257 257 257 257 257 257 257 257 257 257 257 257 257 257 257 257 257 257 257 257 258 258 258 258 258 259 259 259 259
260 260 260 260 260 260 260 260 259 259 258 258 258 257 257 256 256 255 254 254 254 254 254 254 254 255 255 256 256 256 256 256 256 256 255 255 255 254 254 254 254 254 254 254 255 255 255 256 256 256 256 257 257 257 257 257 257 257 257 257 257 257 257 257 257 257 257 257 257 257 257 257 257 257 257 257 257 257 258 258 258 258 259 259 259 259
260 260 259 260 260 260 260 260 259 259 259 258 258 258 257 257 256 255 255 254 254 253 253 253 254 254 255 255 255 256 256 256 256 256 256 255 255 255 254 254 254 254 254 254 254 254 255 255 255 256 256 256 256 257 257 257 257 257 257 257 257 257 257 257 257 257 257 257 257 257 257 257 257 257 257 257 257 257 257 258 258 258 259 259 259 259
260 260 259 259 259 259 259 259 259 259 259 259 258 258 258 257 257 256 255 255 254 253 253 253 253 253 254 254 255 255 255 256 256 256 256 256 255 255 255 255 254 254 254 254 254 254 254 254 255 255 255 256 256 256 256 257 257 257 257 257 257 257 257 257 257 257 257 257 257 257 257 257 257 257 257 257 257 257 257 258 258 258 258 259 259 259
261 260 260 259 259 259 259 259 259 259 259 259 258 258 258 257 257 257 256 255 255 254 253 253 253 253 253 253 254 254 255 255 255 256 256 256 256 255 255 255 255 254 254 254 254 254 254 254 254 254 255 255 255 256 256 256 256 257 257 257 257 257 257 257 257 257 257 257 257 257 257 257 257 257 257 257 257 257 257 257 258 258 258 258 259 259
262 261 260 260 259 259 258 258 258 258 258 258 258 258 258 258 257 257 257 256 255 255 254 254 253 253 253 253 253 254 254 254 255 255 255 255 255 255 255 255 255 255 255 254 254 254 254 254 254 254 254 254 255 255 255 256 256 256 257 257 257 257 257 257 257 257 257 257 257 257 257 257 257 257 257 257 257 257 257 258 258 258 258 258 258 259
262 262 261 261 260 259 259 258 258 258 258 258 258 258 258 258 258 257 257 257 256 256 255 254 254 253 253 253 253 253 253 254 254 254 255 255 255 255 255 255 255 255 255 255 254 254 254 254 254 254 254 254 254 254 255 255 255 256 256 256 257 257 257 257 257 258 258 258 258 258 258 258 257 258 258 258 258 258 258 258 258 258 258 258 258 258
263 262 262 262 261 260 259 259 258 258 258 258 258 257 257 257 257 257 257 257 257 256 256 255 254 254 253 253 253 253 253 253 253 254 254 255 255 255 255 255 255 255 255 255 255 255 254 254 254 254 254 254 254 254 254 255 255 255 256 256 256 257 257 257 257 257 258 258 258 258 258 258 258 258 258 258 258 258 258 258 258 258 258 258 258 258
263 263 262 262 262 261 260 260 259 259 258 258 257 257 257 257 257 257 257 257 257 257 256 256 255 255 254 253 253 252 252 252 253 253 253 254 254 254 255 255 255 255 255 255 255 255 255 254 254 254 254 254 254 254 254 254 254 255 255 255 256 256 256 257 257 257 257 258 258 258 258 258 258 258 258 258 258 258 258 258 258 258 258 258 258 258
263 263 263 262 262 261 261 260 260 259 259 258 257 257 257 256 256 256 257 257 257 257 256 256 256 255 255 254 253 253 252 252 252 252 253 253 254 254 254 254 255 255 255 255 255 255 255 255 255 254 254 254 254 254 254 254 254 254 255 255 255 256 256 256 257 257 257 257 258 258 258 258 258 258 258 258 258 258 258 258 258 258 258 258 258 259
264 263 263 263 262 262 261 261 260 260 259 259 258 258 257 256 256 256 256 256 256 256 256 256 256 256 255 255 254 253 253 252 252 252 252 252 253 253 254 254 254 254 255 255 255 255 255 255 255 255 255 255 254 254 254 254 254 254 254 255 255 255 255 256 256 256 257 257 257 258 258 258 258 258 259 259 259 259 259 259 259 259 259 259 259 259
264 263 263 263 262 262 262 261 260 260 260 259 259 258 258 257 256 256 255 255 255 255 255 256 256 256 255 255 255 254 253 253 253 252 252 252 252 253 253 253 254 254 254 254 255 255 255 255 255 255 255 255 255 255 255 255 254 254 255 255 255 255 255 255 256 256 256 257 257 257 257 258 258 258 258 259 259 259 259 259 259 259 259 259 259 259
264 263 263 263 263 263 262 261 261 260 260 260 260 259 259 258 257 256 256 255 255 255 255 255 255 255 255 255 255 254 254 254 253 253 252 252 252 252 252 253 253 253 254 254 254 255 255 255 255 255 255 255 255 255 255 255 255 255 255 255 255 255 255 255 255 256 256 256 256 257 257 257 258 258 258 258 258 259 259 259 259 259 259 259 260 260
263 263 263 263 263 263 262 262 261 261 260 260 260 260 259 259 258 257 256 256 255 255 254 254 254 254 255 255 255 255 254 254 254 253 253 252 252 252 252 252 252 253 253 253 254 254 254 254 255 255 255 255 255 255 255 255 255 255 255 255 255 255 255 255 255 255 256 256 256 256 257 257 257 257 258 258 258 258 259 259 259 259 259 260 260 260
263 263 263 263 263 263 263 262 262 261 261 261 260 260 259 259 259 258 257 257 256 255 254 254 254 254 254 254 254 254 254 254 254 254 253 253 253 252 252 252 252 252 252 253 253 253 254 254 254 255 255 255 255 255 255 255 255 255 255 255 255 255 255 255 255 255 255 256 256 256 256 257 257 257 257 258 258 258 258 259 259 259 259 260 260 260
263 263 263 263 263 263 263 263 262 262 261 261 261 260 260 259 259 259 258 257 257 256 255 255 254 254 253 253 253 254 254 254 254 254 254 253 253 252 252 252 252 252 252 252 253 253 253 253 254 254 254 255 255 255 255 255 255 255 255 255 255 255 255 255 255 255 255 256 256 256 256 256 257 257 257 257 258 258 258 258 259 259 259 259 259 260
263 263 263 263 263 263 263 263 262 262 262 261 261 261 260 260 260 259 259 258 257 257 256 255 255 254 253 253 253 253 253 253 253 253 253 253 253 253 252 252 252 252 252 252 252 252 253 253 253 254 254 254 254 255 255 255 255 255 255 255 256 256 256 256 256 256 256 256 256 256 256 256 256 257 257 257 257 258 258 258 258 258 259 259 259 260
262 262 262 263 263 263 263 262 262 262 262 262 261 261 261 260 260 260 259 259 258 257 257 256 255 254 253 252 252 252 252 252 252 253 253 253 253 253 253 252 252 252 252 252 252 252 252 252 253 253 253 254 254 254 255 255 255 255 255 255 256 256 256 256 256 256 256 256 256 256 256 256 257 257 257 257 257 257 258 258 258 258 259 259 259 259
261 262 262 262 262 262 262 262 262 262 262 262 261 261 261 261 260 260 260 259 258 257 257 257 256 255 254 253 252 252 251 251 252 252 252 253 253 253 253 253 252 252 252 252 252 252 252 252 252 253 253 253 253 254 254 254 255 255 255 255 256 256 256 256 256 256 256 256 256 256 257 257 257 257 257 257 257 258 258 258 258 258 258 259 259 259
261 261 261 261 261 261 261 262 262 262 261 261 261 261 261 261 261 260 260 259 258 258 258 257 256 255 254 253 253 252 251 251 251 251 251 252 252 253 253 253 252 252 252 252 252 252 252 252 252 252 252 253 253 253 254 254 254 255 255 255 255 256 256 256 256 256 256 256 257 257 257 257 257 257 257 257 258 258 258 258 258 258 259 259 259 259
261 261 261 261 261 261 261 261 261 261 261 261 261 260 260 260 260 260 259 258 258 258 258 257 256 256 255 254 253 252 251 251 251 250 251 251 251 252 252 252 252 252 252 252 252 252 252 252 252 252 252 252 253 253 253 254 254 254 255 255 255 255 256 256 256 256 256 257 257 257 257 257 257 257 257 258 258 258 258 258 258 259 259 259 259 259
261 260 260 260 260 260 260 260 260 260 260 260 260 260 259 259 259 259 259 258 258 258 258 257 256 256 255 254 254 253 252 251 250 250 250 250 251 251 251 252 252 252 252 252 252 252 252 252 252 252 252 252 253 253 253 253 254 254 254 255 255 255 255 256 256 256 256 257 257 257 257 257 257 258 258 258 258 258 258 258 259 259 259 259 259 259
261 261 260 260 260 260 260 260 260 260 259 259 259 259 259 258 258 258 258 258 257 257 257 257 256 256 255 255 254 254 253 251 250 250 250 250 250 250 251 251 251 252 252 252 252 252 252 253 253 253 252 252 253 253 253 253 253 254 254 254 255 255 255 255 256 256 256 256 257 257 257 257 257 258 258 258 258 258 258 259 259 259 259 259 259 260
261 261 261 260 260 260 260 260 259 259 259 259 258 258 258 258 257 257 257 257 257 256 256 256 256 255 255 254 254 254 253 252 251 250 250 250 250 250 250 251 251 251 251 251 252 252 252 253 253 253 253 253 253 253 253 253 253 253 254 254 254 255 255 255 255 256 256 256 256 257 257 257 257 258 258 258 258 258 259 259 259 259 259 259 260 260
261 261 261 260 260 260 259 259 259 259 259 258 258 258 257 257 257 257 256 256 256 256 256 256 255 255 255 254 254 254 253 252 251 251 250 250 250 250 250 250 250 251 251 251 251 252 252 252 253 253 253 253 253 253 253 253 253 254 254 254 254 254 255 255 255 255 256 256 256 257 257 257 257 258 258 258 258 259 259 259 259 259 259 260 260 260
262 261 261 260 260 260 259 259 259 258 258 258 257 257 257 257 256 256 256 256 256 255 255 255 255 255 255 254 254 254 253 253 252 251 251 251 250 250 250 250 250 250 251 251 251 251 252 252 252 253 253 253 254 254 254 254 254 254 254 254 254 254 255 255 255 255 255 256 256 256 257 257 257 257 258 258 258 258 259 259 259 259 259 260 260 260
262 261 261 260 260 259 259 259 258 258 258 257 257 257 257 256 256 256 256 255 255 255 255 255 255 255 254 254 254 254 253 253 252 252 251 251 251 251 250 250 250 250 250 251 251 251 251 252 252 252 253 253 254 254 254 254 254 254 254 254 254 254 255 255 255 255 255 256 256 256 256 257 257 257 257 258 258 258 259 259 259 259 260 260 260 260
261 261 260 260 260 259 259 259 258 258 258 257 257 257 256 256 256 256 255 255 255 255 255 255 254 254 254 254 254 254 254 253 253 252 252 251 251 251 251 251 250 250 250 251 251 251 251 251 252 252 253 253 254 254 254 255 255 254 254 254 255 255 255 255 255 255 256 256 256 256 256 257 257 257 257 258 258 258 259 259 259 259 260 260 260 260
261 261 260 260 259 259 259 258 258 258 257 257 257 256 256 256 256 256 255 255 255 255 255 255 254 254 254 254 254 254 254 254 253 253 252 252 252 251 251 251 251 251 251 251 251 251 251 251 252 252 252 253 253 254 254 255 255 255 255 255 255 255 255 255 255 256 256 256 256 256 257 257 257 257 257 258 258 258 259 259 259 259 260 260 260 261
261 260 260 259 259 259 258 258 258 257 257 257 257 256 256 256 256 256 255 255 255 255 255 255 254 254 254 254 254 254 254 254 254 253 253 252 252 252 252 252 251 251 251 251 251 251 251 251 252 252 252 253 253 254 254 255 255 255 255 256 256 256 256 256 256 256 256 256 257 257 257 257 257 258 258 258 258 258 259 259 259 259 260 260 260 261
261 260 259 259 259 258 258 258 257 257 257 257 257 256 256 256 256 256 255 255 255 255 255 255 254 254 254 254 254 254 254 254 254 254 253 253 253 252 252 252 252 252 251 251 252 252 252 252 252 252 252 253 253 254 254 255 255 255 256 256 256 256 256 256 256 257 257 257 257 257 257 258 258 258 258 258 259 259 259 259 259 260 260 260 261 261
261 260 260 259 258 258 258 257 257 257 257 257 256 256 256 256 256 256 255 255 255 255 255 255 254 254 254 254 254 254 254 254 254 254 254 253 253 253 253 252 252 252 252 252 252 252 252 252 252 252 252 253 253 253 254 254 255 255 256 256 256 257 257 257 257 257 257 257 257 258 258 258 258 258 259 259 259 259 259 260 260 260 260 261 261 261
261 261 260 259 258 258 258 257 257 257 257 257 256 256 256 256 256 256 256 255 255 255 255 255 255 254 254 254 254 254 254 254 254 254 254 254 254 253 253 253 253 252 252 252 252 252 252 252 252 252 252 253 253 253 254 254 255 255 256 256 256 257 257 258 258 258 258 258 258 258 258 259 259 259 259 259 259 260 260 260 260 261 261 261 261 261
262 261 260 260 259 258 258 257 257 257 256 256 256 256 256 256 256 256 256 256 256 255 255 255 255 255 255 255 254 254 254 254 254 254 254 254 254 254 254 253 253 253 253 252 252 252 252 252 252 252 253 253 253 253 254 254 255 255 256 256 256 257 258 258 258 258 258 258 258 259 259 259 259 260 260 260 260 260 260 261 261 261 261 262 262 262
262 261 261 260 259 259 258 258 257 257 256 256 256 256 256 256 256 256 256 256 256 256 255 255 255 255 255 255 255 255 254 254 254 254 254 254 254 254 254 254 254 253 253 253 253 253 253 252 252 252 253 253 253 253 253 254 255 255 255 256 256 257 257 258 258 258 259 259 259 259 259 259 260 260 260 260 261 261 261 261 261 261 262 262 262 262
262 262 261 260 260 259 258 258 257 257 256 256 256 255 255 255 255 256 256 256 256 256 256 255 255 255 255 255 255 255 255 255 254 254 254 254 254 254 254 254 254 254 254 254 254 254 253 253 253 253 253 253 253 253 253 254 254 255 255 256 256 256 257 257 258 259 259 259 259 259 259 260 260 260 261 261 261 261 261 262 262 262 262 262 263 263
262 261 261 260 260 259 259 258 257 256 256 256 255 255 255 255 255 255 255 255 255 255 255 255 255 255 255 255 255 255 255 255 255 254 254 254 254 254 254 254 254 254 254 254 254 254 254 254 254 254 253 253 253 253 253 254 254 254 255 255 256 256 256 257 258 258 258 259 259 259 259 260 260 260 261 261 261 261 262 262 262 262 263 263 263 263
261 261 260 260 259 259 258 257 257 256 256 255 255 254 254 254 254 254 254 254 255 255 255 255 255 255 255 255 255 255 255 255 255 254 254 254 254 254 254 254 254 254 254 254 254 254 254 254 254 254 254 254 253 253 253 254 254 254 254 255 255 255 256 257 257 258 258 258 259 259 259 260 260 260 260 261 261 261 262 262 262 262 263 263 263 263
260 260 259 259 258 258 257 257 256 256 255 255 254 254 254 254 254 254 254 254 254 254 254 254 254 254 254 254 254 254 254 254 254 254 254 254 254 254 254 254 254 254 254 254 254 254 254 254 254 254 254 254 253 253 253 253 254 254 254 254 255 255 255 256 256 257 257 258 258 259 259 259 260 260 260 260 261 261 262 262 262 263 263 263 264 264
259 259 258 258 258 257 257 257 256 256 255 255 254 254 254 254 254 253 253 253 253 253 254 254 254 254 254 254 254 254 254 254 254 254 254 254 254 253 253 253 253 253 253 253 253 253 253 253 253 253 253 253 253 253 253 253 253 253 254 254 254 255 255 255 256 256 257 257 258 258 259 259 259 260 260 260 261 261 261 262 262 263 263 263 264 264
258 258 258 257 257 257 257 256 256 256 255 255 255 254 254 254 254 254 254 254 253 253 253 253 254 253 254 254 254 254 254 254 254 254 254 254 254 253 253 253 253 253 253 253 253 253 253 253 253 253 253 253 253 253 253 253 253 253 254 254 254 254 254 255 255 256 256 257 257 258 258 259 259 259 260 260 261 261 262 262 262 263 263 264 264 264
258 258 257 257 257 257 256 256 256 256 255 255 255 255 255 254 254 254 254 254 254 254 254 254 254 254 254 254 254 254 254 254 254 254 254 254 254 254 254 253 253 253 253 253 253 253 253 253 253 253 253 253 253 253 254 254 254 254 254 254 254 254 254 255 255 256 256 256 257 257 258 258 259 259 260 260 260 261 262 262 263 263 263 264 264 264
258 258 257 257 257 256 256 256 256 256 255 255 255 255 255 255 255 255 255 255 255 255 255 255 255 255 255 255 255 255 254 254 254 255 255 255 255 255 255 254 254 254 254 253 253 253 253 253 253 253 253 253 253 254 254 254 254 254 254 254 254 254 255 255 255 256 256 256 257 257 258 258 258 259 259 260 260 261 261 262 263 263 264 264 264 265
Height
10483 10484 10486 10488 10490 10491 10492 10493 10496 10497 10498 10499 10501 10502 10503 10504 10505 10506 10506 10508 10509 10510 10511 10512 10513 10514 10515 10515 10516 10516 10518 10518 10520 10521 10521 10523 10524 10525 10526 10528 10529 10530 10531 10532 10533 10535 10535 10536 10537 10538 10539 10540 10541 10541 10542 10543 10544 10545 10546 10546 10548 10548 10550 10551 10552 10553 10554 10555 10556 10557 10558 10559 10560 10561 10562 10563 10564 10565 10566 10567 10568 10570 10571 10572 10573 10574
10475 10476 10478 10480 10482 10483 10484 10486 10488 10490 10490 10491 10493 10495 10496 10497 10498 10499 10500 10501 10502 10503 10504 10505 10506 10507 10508 10509 10510 10511 10511 10512 10513 10514 10515 10516 10518 10519 10520 10521 10522 10523 10525 10526 10526 10528 10529 10530 10531 10531 10533 10533 10534 10535 10536 10536 10538 10538 10539 10540 10541 10542 10543 10544 10545 10546 10548 10549 10550 10551 10552 10553 10554 10555 10555 10556 10557 10558 10560 10560 10561 10563 10564 10565 10566 10567
10468 10468 10470 10471 10474 10476 10476 10478 10480 10482 10483 10484 10485 10487 10488 10490 10490 10491 10493 10494 10495 10496 10497 10498 10500 10501 10501 10503 10503 10505 10505 10506 10507 10508 10509 10510 10511 10512 10513 10515 10515 10516 10518 10519 10520 10521 10522 10523 10525 10525 10526 10527 10528 10528 10530 10530 10531 10532 10533 10533 10535 10535 10536 10538 10539 10540 10541 10542 10543 10545 10545 10546 10547 10548 10549 10550 10551 10551 10553 10553 10555 10556 10557 10558 10559 10560
10461 10461 10461 10463 10465 10468 10469 10470 10472 10474 10475 10476 10478 10480 10481 10482 10483 10484 10485 10486 10488 10489 10490 10491 10492 10493 10495 10496 10497 10498 10499 10500 10501 10501 10503 10503 10505 10506 10506 10508 10509 10510 10511 10512 10513 10515 10516 10516 10518 10519 10520 10521 10521 10522 10523 10524 10525 10525 10526 10527 10528 10529 10530 10531 10532 10533 10535 10535 10536 10538 10539 10540 10541 10541 10543 10543 10544 10545 10546 10547 10548 10549 10550 10551 10552 10553
10453 10454 10454 10455 10457 10459 10460 10462 10465 10466 10467 10468 10470 10471 10473 10474 10475 10476 10478 10480 10481 10481 10483 10484 10485 10486 10488 10489 10490 10491 10493 10493 10495 10495 10496 10497 10498 10499 10500 10501 10502 10503 10504 10505 10506 10508 10509 10510 10511 10512 10513 10514 10515 10516 10516 10518 10518 10519 10520 10521 10521 10523 10523 10525 10525 10526 10528 10529 10530 10531 10532 10533 10535 10535 10536 10537 10538 10538 10539 10540 10541 10542 10543 10545 10545 10546
10446 10447 10447 10448 10448 10450 10451 10454 10456 10458 10459 10460 10461 10463 10465 10466 10467 10469 10470 10472 10473 10474 10475 10476 10478 10479 10480 10482 10483 10485 10486 10487 10488 10489 10490 10491 10491 10493 10493 10495 10495 10496 10497 10498 10500 10501 10502 10503 10504 10505 10506 10507 10508 10509 10510 10511 10511 10513 10513 10515 10515 10516 10517 10518 10519 10520 10521 10522 10523 10525 10525 10526 10528 10528 10530 10530 10531 10532 10533 10533 10535 10535 10536 10537 10538 10539
10438 10440 10440 10440 10440 10441 10443 10446 10448 10450 10451 10451 10453 10455 10456 10458 10460 10461 10462 10463 10465 10466 10468 10469 10470 10471 10473 10475 10476 10478 10479 10480 10481 10482 10483 10484 10485 10486 10487 10488 10489 10490 10491 10491 10493 10494 10495 10496 10497 10498 10500 10500 10501 10502 10503 10504 10505 10506 10507 10508 10509 10510 10510 10511 10512 10513 10514 10515 10516 10518 10518 10520 10521 10522 10523 10523 10525 10525 10526 10526 10528 10528 10530 10530 10531 10532
10430 10431 10433 10433 10433 10433 10435 10437 10440 10441 10443 10444 10445 10446 10448 10450 10451 10453 10454 10456 10458 10459 10460 10461 10463 10465 10466 10467 10468 10470 10471 10473 10474 10475 10476 10477 10478 10480 10480 10481 10482 10483 10484 10485 10486 10487 10488 10489 10490 10491 10493 10493 10495 10495 10496 10498 10498 10500 10500 10501 10502 10503 10504 10505 10506 10506 10508 10508 10510 10510 10511 10513 10514 10515 10516 10516 10518 10518 10519 10520 10521 10521 10523 10523 10525 10525
10423 10423 10425 10425 10425 10425 10426 10428 10431 10433 10435 10436 10437 10438 10440 10441 10443 10444 10446 10448 10450 10451 10453 10454 10455 10456 10458 10460 10461 10463 10464 10465 10466 10468 10469 10470 10471 10473 10473 10475 10475 10476 10477 10478 10479 10480 10481 10482 10483 10485 10485 10486 10487 10488 10490 10490 10491 10492 10493 10494 10495 10496 10497 10498 10499 10500 10501 10501 10503 10503 10505 10506 10506 10508 10509 10510 10511 10511 10513 10513 10514 10515 10516 10516 10517 10518
10415 10416 10416 10418 10418 10418 10419 10420 10422 10425 10428 10429 10430 10431 10432 10433 10434 10436 10438 10440 10441 10443 10445 10446 10448 10449 10450 10452 10454 10456 10456 10458 10459 10461 10462 10463 10464 10465 10466 10467 10468 10470 10470 10471 10472 10473 10474 10475 10476 10477 10478 10479 10480 10481 10482 10483 10484 10485 10486 10487 10488 10489 10490 10491 10492 10493 10494 10495 10496 10496 10498 10498 10500 10501 10501 10503 10504 10505 10506 10506 10508 10508 10509 10510 10510 10511
10406 10408 10409 10410 10411 10411 10412 10413 10414 10416 10420 10421 10422 10423 10424 10425 10426 10427 10429 10430 10432 10434 10437 10439 10440 10441 10443 10445 10446 10448 10450 10450 10451 10453 10455 10456 10456 10458 10459 10460 10461 10462 10463 10464 10465 10466 10467 10468 10469 10470 10471 10472 10473 10474 10475 10476 10477 10478 10479 10480 10481 10482 10483 10484 10485 10486 10487 10488 10489 10490 10491 10491 10493 10493 10495 10496 10496 10498 10499 10500 10501 10501 10502 10503 10503 10504
10398 10400 10401 10403 10403 10404 10405 10405 10406 10408 10411 10413 10414 10415 10415 10416 10418 10419 10420 10421 10423 10426 10428 10430 10431 10433 10436 10437 10438 10440 10442 10443 10444 10445 10446 10448 10449 10450 10451 10453 10454 10455 10456 10457 10458 10459 10460 10460 10461 10463 10464 10465 10466 10466 10468 10469 10470 10471 10471 10473 10474 10475 10476 10476 10478 10479 10480 10481 10481 10483 10483 10485 10485 10486 10488 10488 10490 10491 10491 10493 10494 10495 10495 10496 10496 10497
10390 10391 10393 10395 10395 10396 10397 10398 10400 10401 10404 10405 10406 10406 10406 10407 10409 10411 10412 10413 10414 10417 10420 10421 10423 10426 10428 10430 10431 10433 10435 10435 10436 10437 10439 10440 10441 10443 10444 10445 10446 10447 10448 10450 10450 10451 10452 10453 10454 10455 10456 10457 10458 10459 10460 10461 10462 10463 10465 10465 10466 10468 10468 10470 10471 10471 10473 10474 10475 10476 10476 10478 10478 10480 10480 10481 10483 10483 10485 10486 10486 10488 10488 10489 10490 10490
10380 10383 10385 10386 10387 10388 10389 10391 10393 10394 10396 10397 10398 10398 10398 10399 10401 10403 10404 10404 10406 10408 10411 10414 10415 10417 10419 10421 10424 10425 10426 10427 10428 10430 10431 10432 10433 10435 10436 10438 10438 10439 10441 10441 10443 10443 10444 10445 10446 10448 10448 10450 10451 10451 10453 10454 10455 10456 10457 10458 10460 10460 10461 10462 10463 10465 10465 10466 10468 10468 10470 10470 10471 10472 10473 10475 10475 10476 10478 10479 10480 10481 10481 10482 10483 10483
10371 10374 10376 10378 10378 10379 10381 10383 10385 10386 10388 10388 10390 10390 10390 10391 10393 10394 10395 10396 10398 10400 10403 10406 10407 10408 10410 10413 10415 10417 10418 10420 10420 10421 10423 10424 10425 10426 10429 10430 10430 10431 10433 10434 10435 10435 10436 10438 10439 10440 10440 10442 10443 10444 10445 10446 10448 10449 10450 10451 10452 10453 10454 10455 10456 10457 10458 10460 10460 10461 10462 10463 10465 10465 10466 10467 10468 10470 10470 10471 10473 10473 10475 10475 10476 10476
10363 10365 10368 10368 10369 10371 10373 10376 10378 10379 10379 10380 10381 10381 10382 10383 10384 10385 10387 10388 10390 10392 10395 10397 10398 10399 10401 10404 10406 10408 10410 10411 10412 10413 10415 10415 10416 10418 10421 10422 10422 10423 10424 10425 10426 10426 10428 10430 10431 10431 10433 10434 10435 10436 10438 10439 10440 10441 10443 10444 10445 10446 10447 10448 10449 10450 10451 10452 10453 10454 10455 10456 10457 10458 10459 10460 10461 10462 10463 10464 10465 10466 10467 10468 10468 10469
10354 10356 10358 10359 10360 10362 10365 10368 10370 10370 10370 10370 10371 10373 10373 10375 10376 10378 10380 10381 10383 10385 10387 10388 10390 10390 10392 10394 10397 10400 10401 10403 10404 10405 10406 10406 10408 10410 10413 10415 10414 10414 10415 10417 10418 10418 10420 10421 10422 10423 10425 10426 10428 10428 10430 10431 10433 10433 10435 10436 10437 10438 10440 10441 10441 10443 10444 10445 10446 10446 10448 10449 10450 10451 10452 10453 10454 10455 10456 10457 10458 10459 10460 10460 10461 10462
10345 10347 10349 10350 10351 10353 10356 10359 10361 10361 10361 10361 10362 10363 10365 10366 10368 10371 10373 10374 10375 10376 10378 10379 10380 10382 10383 10385 10386 10389 10392 10395 10396 10396 10397 10398 10398 10400 10404 10406 10406 10406 10406 10408 10410 10410 10411 10413 10414 10415 10416 10418 10420 10421 10422 10423 10425 10426 10427 10428 10430 10431 10432 10433 10435 10435 10436 10438 10438 10440 10440 10441 10442 10443 10445 10445 10446 10448 10448 10450 10450 10451 10452 10453 10454 10455
10335 10337 10340 10341 10343 10344 10346 10350 10351 10351 10352 10353 10354 10355 10356 10358 10361 10363 10365 10365 10367 10368 10370 10370 10371 10373 10374 10375 10376 10378 10383 10386 10387 10387 10388 10389 10390 10391 10395 10398 10398 10397 10398 10400 10401 10401 10403 10405 10406 10406 10408 10410 10411 10413 10414 10415 10416 10418 10419 10420 10422 10423 10425 10426 10427 10428 10429 10430 10431 10432 10433 10434 10435 10436 10437 10438 10439 10440 10441 10442 10443 10444 10445 10445 10446 10447
10326 10328 10330 10332 10333 10335 10338 10340 10341 10342 10343 10345 10345 10346 10348 10350 10351 10353 10355 10356 10358 10360 10361 10362 10363 10364 10365 10366 10368 10370 10373 10377 10378 10378 10378 10380 10380 10382 10385 10388 10389 10389 10389 10390 10392 10393 10395 10396 10397 10398 10400 10401 10403 10404 10405 10407 10408 10410 10411 10413 10414 10415 10416 10418 10419 10420 10421 10423 10423 10425 10426 10426 10428 10428 10430 10430 10431 10432 10433 10434 10435 10436 10437 10438 10438 10440
10317 10318 10320 10322 10325 10326 10328 10329 10331 10333 10335 10336 10337 10338 10339 10340 10341 10344 10346 10348 10350 10351 10353 10354 10355 10355 10356 10358 10360 10361 10363 10367 10369 10369 10368 10370 10371 10373 10376 10379 10380 10380 10380 10381 10383 10385 10386 10388 10388 10390 10391 10393 10394 10396 10397 10398 10400 10401 10403 10404 10406 10407 10408 10410 10411 10412 10413 10415 10416 10417 10418 10419 10420 10421 10422 10423 10424 10425 10426 10426 10428 10428 10430 10430 10431 10432
10308 10310 10310 10313 10316 10318 10318 10318 10321 10325 10326 10328 10328 10329 10329 10330 10332 10335 10336 10338 10340 10342 10343 10345 10345 10346 10348 10350 10351 10352 10354 10358 10360 10359 10359 10361 10363 10364 10365 10369 10371 10372 10371 10371 10373 10376 10378 10379 10380 10381 10383 10385 10386 10387 10388 10390 10391 10393 10395 10396 10397 10398 10400 10401 10403 10404 10405 10406 10408 10409 10410 10411 10412 10413 10414 10415 10416 10417 10418 10419 10420 10421 10421 10423 10423 10424
10300 10300 10301 10304 10306 10308 10308 10310 10312 10315 10317 10318 10319 10320 10319 10321 10323 10325 10326 10328 10331 10333 10333 10335 10336 10338 10340 10342 10343 10343 10345 10348 10350 10350 10350 10352 10352 10352 10354 10360 10363 10363 10361 10361 10363 10366 10369 10370 10370 10372 10374 10376 10377 10378 10380 10381 10383 10384 10385 10387 10388 10390 10391 10393 10394 10395 10396 10398 10399 10400 10401 10403 10404 10405 10406 10407 10408 10409 10410 10411 10412 10413 10414 10415 10416 10416
10291 10291 10293 10295 10297 10298 10299 10301 10303 10305 10306 10308 10310 10310 10310 10312 10314 10315 10316 10318 10321 10323 10324 10326 10328 10330 10331 10332 10333 10334 10336 10338 10340 10340 10341 10342 10341 10341 10345 10350 10353 10353 10351 10351 10354 10357 10360 10360 10361 10363 10365 10366 10368 10368 10370 10371 10373 10375 10376 10378 10379 10381 10382 10384 10385 10386 10388 10389 10390 10392 10393 10395 10395 10396 10398 10399 10400 10401 10402 10403 10405 10405 10406 10407 10408 10409
10281 10283 10284 10285 10287 10288 10290 10291 10293 10295 10296 10298 10300 10300 10301 10303 10304 10305 10306 10308 10311 10313 10314 10316 10318 10319 10319 10320 10323 10325 10326 10328 10330 10332 10332 10332 10331 10332 10335 10340 10343 10343 10341 10342 10345 10348 10350 10351 10351 10353 10356 10357 10358 10359 10360 10362 10364 10365 10367 10368 10370 10371 10373 10375 10376 10378 10379 10380 10381 10383 10385 10386 10387 10388 10389 10390 10391 10393 10394 10395 10396 10397 10398 10399 10400 10401
10272 10273 10275 10276 10277 10279 10280 10282 10283 10285 10287 10288 10290 10291 10292 10293 10295 10295 10296 10298 10300 10301 10303 10305 10306 10307 10307 10310 10313 10315 10316 10318 10321 10323 10323 10322 10322 10323 10325 10328 10332 10333 10333 10333 10335 10338 10340 10341 10341 10343 10346 10348 10348 10349 10351 10353 10355 10356 10358 10360 10361 10363 10364 10366 10367 10368 10370 10371 10373 10375 10376 10377 10378 10380 10381 10382 10383 10384 10385 10386 10388 10389 10390 10391 10391 10393
10263 10264 10265 10266 10268 10269 10270 10271 10273 10275 10277 10278 10280 10281 10282 10284 10285 10286 10286 10286 10288 10291 10293 10295 10295 10295 10296 10300 10303 10304 10305 10308 10311 10313 10313 10313 10314 10315 10315 10317 10321 10323 10324 10323 10325 10327 10330 10330 10331 10334 10336 10338 10339 10340 10341 10343 10345 10346 10348 10350 10352 10353 10355 10356 10358 10359 10361 10362 10364 10365 10367 10368 10370 10371 10372 10373 10375 10376 10376 10378 10379 10380 10381 10382 10383 10384
10253 10254 10255 10256 10258 10259 10260 10261 10263 10265 10267 10268 10270 10271 10272 10274 10275 10276 10275 10275 10276 10281 10284 10284 10283 10284 10286 10289 10291 10292 10294 10298 10301 10303 10303 10305 10306 10305 10304 10306 10310 10314 10315 10314 10315 10316 10319 10321 10322 10324 10326 10328 10329 10330 10332 10334 10335 10337 10339 10341 10343 10344 10345 10347 10348 10350 10351 10353 10355 10356 10358 10359 10360 10361 10363 10365 10366 10366 10368 10369 10370 10371 10372 10373 10374 10375
10242 10243 10245 10246 10247 10248 10250 10251 10253 10255 10256 10258 10260 10261 10262 10264 10265 10265 10263 10263 10267 10271 10273 10271 10271 10273 10276 10278 10279 10281 10284 10288 10291 10292 10293 10297 10297 10295 10293 10295 10301 10304 10304 10304 10305 10306 10309 10310 10311 10313 10316 10318 10320 10321 10322 10324 10326 10328 10330 10331 10333 10334 10336 10337 10338 10340 10341 10343 10345 10346 10348 10350 10351 10353 10354 10355 10356 10358 10359 10360 10361 10362 10363 10364 10365 10366
10231 10232 10234 10235 10236 10238 10240 10241 10243 10244 10246 10247 10248 10250 10251 10253 10254 10253 10253 10254 10257 10260 10260 10259 10260 10263 10266 10267 10268 10270 10273 10276 10278 10281 10286 10288 10287 10283 10281 10286 10291 10293 10293 10295 10296 10298 10298 10298 10300 10303 10306 10308 10309 10310 10312 10314 10316 10318 10320 10321 10323 10324 10326 10327 10329 10330 10332 10334 10335 10337 10339 10340 10341 10343 10345 10346 10347 10348 10350 10351 10351 10353 10354 10355 10356 10357
10219 10221 10223 10224 10225 10227 10229 10231 10232 10233 10235 10236 10238 10239 10240 10241 10243 10243 10243 10245 10246 10248 10248 10248 10250 10253 10255 10257 10258 10260 10261 10262 10266 10272 10278 10279 10276 10272 10272 10277 10280 10281 10281 10285 10288 10289 10287 10287 10290 10293 10296 10298 10299 10300 10302 10304 10306 10308 10310 10311 10313 10314 10316 10317 10319 10321 10323 10324 10326 10328 10329 10331 10332 10334 10335 10336 10338 10339 10340 10341 10342 10343 10345 10346 10346 10348
10208 10210 10211 10213 10214 10216 10218 10220 10221 10222 10223 10225 10226 10227 10228 10230 10231 10232 10233 10234 10235 10236 10237 10238 10240 10241 10244 10246 10248 10249 10249 10250 10256 10262 10267 10268 10265 10262 10263 10268 10270 10269 10270 10275 10279 10280 10278 10278 10280 10283 10286 10288 10288 10290 10291 10294 10296 10298 10300 10301 10303 10304 10305 10307 10310 10311 10313 10314 10316 10318 10320 10321 10323 10324 10325 10327 10328 10329 10330 10331 10333 10334 10335 10336 10337 10338
10196 10199 10200 10201 10203 10205 10207 10208 10210 10211 10212 10213 10215 10216 10217 10219 10220 10221 10222 10223 10225 10226 10227 10228 10230 10231 10233 10235 10237 10238 10239 10241 10245 10251 10255 10256 10255 10253 10255 10258 10259 10259 10260 10264 10268 10270 10270 10270 10271 10273 10275 10277 10278 10279 10281 10283 10286 10288 10290 10291 10293 10293 10295 10297 10300 10301 10303 10304 10305 10308 10310 10311 10313 10314 10315 10317 10318 10320 10320 10321 10323 10324 10325 10326 10328 10328
10186 10188 10189 10190 10192 10194 10196 10197 10198 10200 10201 10202 10203 10205 10206 10208 10209 10210 10211 10213 10214 10215 10217 10218 10219 10221 10223 10225 10226 10228 10229 10231 10235 10239 10243 10245 10245 10244 10244 10247 10249 10250 10250 10253 10256 10259 10260 10262 10263 10265 10266 10266 10267 10268 10270 10273 10275 10277 10280 10281 10283 10283 10284 10286 10289 10291 10292 10293 10295 10297 10299 10301 10303 10304 10306 10307 10308 10309 10310 10311 10313 10314 10315 10316 10318 10318
10175 10176 10178 10180 10181 10183 10185 10186 10187 10189 10190 10191 10192 10193 10195 10196 10198 10200 10201 10202 10203 10205 10206 10208 10210 10211 10213 10215 10216 10217 10218 10220 10223 10227 10231 10234 10234 10233 10234 10237 10239 10240 10240 10243 10246 10248 10251 10253 10254 10255 10256 10256 10257 10258 10260 10261 10264 10266 10269 10271 10272 10273 10274 10276 10278 10280 10281 10283 10285 10287 10289 10290 10292 10294 10295 10296 10298 10299 10300 10301 10303 10304 10305 10306 10308 10308
10164 10165 10166 10168 10170 10172 10173 10175 10176 10178 10179 10180 10181 10183 10185 10186 10187 10188 10190 10191 10193 10195 10196 10198 10200 10201 10203 10205 10206 10206 10207 10208 10212 10216 10221 10223 10223 10223 10225 10227 10228 10229 10231 10234 10236 10238 10240 10243 10245 10246 10248 10248 10248 10248 10248 10250 10253 10256 10258 10260 10261 10263 10264 10266 10268 10270 10271 10273 10274 10276 10278 10280 10282 10283 10285 10286 10288 10289 10290 10291 10293 10294 10295 10296 10297 10298
10153 10155 10156 10158 10160 10161 10163 10164 10165 10167 10169 10170 10171 10172 10174 10175 10176 10178 10179 10181 10183 10184 10186 10187 10189 10191 10193 10194 10195 10196 10196 10198 10201 10205 10209 10211 10212 10214 10216 10216 10217 10219 10222 10225 10226 10227 10230 10233 10235 10236 10238 10240 10239 10238 10238 10240 10243 10246 10248 10248 10250 10252 10254 10255 10257 10259 10261 10262 10263 10265 10267 10269 10271 10273 10275 10276 10277 10278 10280 10281 10282 10283 10285 10286 10286 10288
10142 10143 10145 10146 10149 10151 10152 10153 10155 10156 10158 10159 10160 10161 10163 10165 10166 10167 10168 10170 10172 10173 10175 10176 10178 10180 10182 10183 10185 10186 10186 10188 10190 10193 10196 10198 10201 10204 10206 10206 10207 10209 10213 10215 10215 10217 10221 10224 10226 10226 10227 10229 10230 10230 10230 10231 10233 10235 10236 10236 10239 10241 10244 10245 10246 10248 10251 10252 10253 10255 10256 10258 10261 10262 10264 10265 10266 10268 10270 10271 10271 10273 10275 10276 10276 10277
10131 10133 10134 10136 10138 10140 10142 10143 10144 10146 10148 10149 10150 10151 10153 10154 10155 10156 10158 10160 10161 10163 10165 10166 10168 10170 10171 10173 10174 10175 10176 10178 10180 10181 10184 10186 10190 10193 10195 10196 10198 10199 10201 10204 10206 10208 10211 10213 10215 10216 10217 10219 10220 10221 10223 10223 10225 10225 10225 10226 10229 10231 10233 10235 10236 10238 10240 10242 10243 10245 10246 10248 10250 10251 10253 10255 10256 10258 10259 10260 10261 10262 10264 10265 10266 10266
10121 10122 10124 10125 10127 10130 10131 10133 10134 10135 10137 10139 10140 10141 10142 10144 10145 10146 10147 10149 10150 10152 10153 10155 10157 10159 10160 10162 10163 10165 10166 10168 10170 10171 10173 10176 10178 10181 10184 10186 10188 10189 10191 10194 10196 10198 10200 10202 10204 10205 10207 10210 10211 10212 10213 10215 10215 10216 10216 10218 10220 10221 10221 10223 10225 10228 10230 10231 10233 10234 10236 10237 10239 10241 10243 10244 10245 10246 10248 10249 10250 10251 10253 10255 10256 10256
10111 10112 10113 10115 10116 10119 10121 10122 10123 10125 10127 10129 10130 10131 10132 10133 10134 10135 10136 10138 10140 10141 10143 10145 10147 10148 10150 10151 10153 10154 10156 10158 10160 10161 10163 10165 10168 10170 10173 10175 10177 10179 10181 10183 10186 10188 10190 10191 10193 10195 10197 10200 10201 10203 10204 10205 10206 10207 10208 10210 10210 10210 10210 10212 10215 10218 10220 10221 10223 10225 10226 10227 10228 10230 10232 10233 10235 10236 10237 10238 10240 10240 10241 10243 10245 10246
10100 10101 10103 10104 10106 10108 10110 10112 10113 10115 10117 10118 10120 10120 10121 10122 10124 10125 10127 10128 10130 10131 10133 10135 10137 10138 10140 10140 10141 10143 10145 10147 10149 10151 10153 10155 10157 10160 10161 10164 10166 10168 10170 10173 10175 10176 10179 10181 10183 10185 10186 10189 10191 10194 10195 10196 10197 10198 10200 10200 10200 10200 10201 10203 10205 10207 10208 10210 10213 10215 10216 10217 10218 10220 10221 10222 10223 10225 10226 10228 10229 10230 10230 10231 10233 10235
10090 10091 10092 10094 10096 10098 10100 10101 10103 10105 10106 10107 10108 10110 10110 10111 10114 10116 10117 10118 10118 10120 10122 10125 10127 10129 10130 10130 10131 10133 10135 10137 10139 10141 10143 10145 10147 10149 10151 10153 10155 10158 10160 10163 10165 10166 10168 10171 10173 10175 10176 10179 10182 10185 10186 10186 10187 10188 10190 10190 10191 10191 10193 10193 10194 10195 10198 10201 10203 10204 10206 10208 10208 10209 10210 10211 10213 10214 10215 10216 10218 10219 10219 10220 10221 10223
10080 10081 10082 10084 10086 10087 10089 10090 10091 10093 10095 10096 10098 10098 10100 10101 10104 10106 10107 10107 10108 10110 10111 10115 10117 10119 10120 10120 10120 10121 10123 10126 10129 10131 10133 10135 10136 10138 10141 10143 10145 10147 10150 10153 10154 10155 10157 10160 10163 10165 10166 10169 10173 10176 10176 10176 10177 10178 10180 10180 10181 10183 10184 10183 10183 10185 10188 10191 10192 10193 10195 10198 10199 10200 10200 10201 10202 10203 10204 10205 10206 10207 10208 10209 10211 10212
10070 10071 10072 10074 10075 10076 10078 10079 10080 10081 10083 10085 10086 10087 10088 10090 10093 10095 10096 10097 10098 10099 10101 10104 10106 10108 10110 10109 10110 10111 10113 10116 10118 10120 10122 10124 10126 10128 10130 10133 10135 10137 10140 10142 10144 10146 10148 10150 10152 10154 10156 10160 10163 10166 10166 10166 10167 10169 10170 10170 10172 10174 10175 10174 10175 10176 10179 10180 10180 10182 10185 10188 10190 10190 10190 10191 10191 10191 10193 10194 10195 10196 10196 10198 10200 10201
10061 10061 10063 10064 10065 10066 10068 10068 10070 10071 10073 10075 10075 10076 10077 10080 10082 10084 10086 10086 10088 10089 10091 10093 10096 10098 10098 10098 10098 10101 10103 10105 10106 10108 10110 10113 10115 10118 10120 10122 10125 10126 10129 10131 10134 10136 10138 10140 10141 10143 10146 10150 10153 10154 10154 10155 10157 10159 10160 10160 10162 10164 10165 10165 10166 10167 10168 10168 10170 10171 10175 10177 10179 10180 10180 10180 10180 10181 10182 10183 10184 10185 10185 10186 10188 10190
10051 10052 10053 10055 10056 10057 10058 10058 10060 10061 10063 10063 10064 10065 10067 10069 10071 10073 10075 10076 10077 10079 10080 10082 10085 10086 10087 10086 10088 10091 10093 10095 10095 10096 10099 10102 10105 10106 10109 10112 10114 10116 10119 10121 10123 10125 10128 10130 10131 10133 10136 10139 10141 10141 10143 10145 10147 10149 10150 10150 10152 10155 10156 10155 10155 10156 10158 10159 10160 10161 10163 10166 10168 10170 10169 10169 10170 10171 10171 10172 10173 10173 10175 10176 10178 10180
10042 10043 10045 10046 10046 10048 10048 10049 10050 10051 10053 10053 10054 10055 10057 10059 10061 10063 10064 10065 10067 10069 10071 10072 10074 10075 10076 10076 10078 10080 10083 10084 10085 10086 10088 10091 10093 10096 10098 10101 10104 10106 10108 10110 10113 10115 10117 10119 10121 10123 10126 10128 10129 10130 10131 10134 10137 10139 10140 10140 10142 10145 10145 10145 10145 10146 10148 10150 10151 10151 10153 10156 10158 10158 10158 10159 10160 10161 10161 10161 10161 10163 10164 10166 10168 10169
10034 10035 10036 10037 10038 10038 10039 10040 10041 10042 10043 10044 10045 10046 10048 10050 10051 10053 10054 10056 10057 10060 10061 10063 10064 10065 10066 10067 10069 10071 10073 10074 10075 10076 10078 10080 10083 10085 10088 10091 10093 10096 10098 10100 10102 10105 10106 10109 10111 10113 10115 10117 10118 10120 10121 10123 10126 10128 10130 10131 10132 10134 10134 10134 10135 10136 10139 10140 10141 10142 10144 10146 10147 10148 10148 10150 10151 10151 10151 10151 10152 10153 10154 10155 10157 10160
10025 10026 10027 10028 10029 10030 10030 10031 10032 10033 10034 10035 10036 10036 10038 10040 10042 10044 10045 10046 10048 10050 10052 10053 10055 10056 10057 10058 10060 10061 10063 10065 10066 10067 10068 10070 10073 10075 10078 10080 10083 10086 10088 10090 10093 10095 10097 10099 10101 10103 10105 10107 10109 10110 10111 10113 10115 10118 10120 10121 10122 10123 10124 10125 10125 10126 10128 10130 10131 10133 10135 10136 10137 10138 10139 10140 10141 10141 10141 10142 10143 10143 10144 10145 10148 10150
10016 10018 10018 10020 10020 10021 10021 10022 10023 10025 10025 10026 10027 10028 10030 10031 10033 10035 10036 10038 10040 10041 10043 10044 10046 10048 10049 10050 10051 10053 10055 10056 10058 10059 10060 10062 10064 10067 10069 10071 10073 10076 10079 10081 10083 10085 10088 10090 10091 10093 10095 10098 10100 10101 10102 10103 10105 10108 10110 10111 10111 10113 10115 10116 10116 10116 10118 10121 10122 10123 10125 10126 10128 10128 10130 10131 10132 10132 10133 10133 10134 10134 10134 10136 10138 10140